Location: Newark
(35.6799°N, 139.7636°E)
Time: 23:19:12
(UTC+00:00)

Courier 1B Rocket - Pass Details

Date: 11 December 2019
Orbit: 920 x 1202 km, 28.2° (Epoch: 20 January)

Event Time Altitude Azimuth Distance (km) Brightness Sun altitude
Exits shadow 19:29:16 12° 211° (SSW) 2,791 7.2 -25.9°
Maximum altitude 19:34:28 26° 161° (SSE) 1,925 6.8 -24.9°
Drops below altitude 10° 19:39:55 10° 107° (ESE) 2,776 8.5 -23.8°
Sets 19:42:57 0° 95° (E) 3,682 9.4 -23.2°
